SXS2DK EHEH-LTBJ

Flight info

Callsign SXS2DK
Flight time 2h 50m
Altitude 37000
Route OSGOS DCT RASVO DCT EMGOD DCT RUDUS T109 HAREM DCT DKB DCT GOLMO DCT SUBEN DCT LNZ DCT GBG DCT OBUTI DCT ETIDA DCT NISVA DCT NIKTI UN127 RIKSO
Aircraft B38M/M-SDE1FGHILORVWXY/HB1

Departure

Time 2026-05-05 19:05
Airport Eindhoven Airport (EHEH)

Arrival

Time 2026-05-05 21:55
Airport Adnan Menderes International Airport (LTBJ)
Time Latitude Longitude Altitude Speed Heading
2026-05-05 18:21 51.45857 5.39055 89 ft 0 kts 125°
2026-05-05 18:52 51.45861 5.39045 80 ft 2 kts 123°
2026-05-05 18:52 51.45870 5.39022 87 ft 2 kts 120°
2026-05-05 18:52 51.45877 5.38999 80 ft 2 kts 114°
2026-05-05 18:52 51.45883 5.38974 80 ft 2 kts 101°
2026-05-05 18:53 51.45883 5.38948 84 ft 2 kts 71°
2026-05-05 18:53 51.45874 5.38926 82 ft 2 kts 39°
2026-05-05 18:53 51.45869 5.38920 86 ft 0 kts 35°
2026-05-05 18:57 51.45872 5.38923 82 ft 2 kts 36°
2026-05-05 18:57 51.45888 5.38942 84 ft 4 kts 36°
2026-05-05 18:57 51.45918 5.38977 80 ft 7 kts 36°
2026-05-05 18:58 51.45965 5.38984 80 ft 8 kts 330°
2026-05-05 18:58 51.46005 5.38908 80 ft 10 kts 305°
2026-05-05 18:58 51.46051 5.38805 82 ft 12 kts 305°
2026-05-05 18:58 51.46101 5.38690 82 ft 13 kts 305°
2026-05-05 18:59 51.46158 5.38559 84 ft 16 kts 303°
2026-05-05 18:59 51.46118 5.38409 83 ft 17 kts 214°
2026-05-05 18:59 51.46012 5.38291 84 ft 19 kts 213°
2026-05-05 18:59 51.45899 5.38164 82 ft 21 kts 215°
2026-05-05 19:00 51.45771 5.38020 81 ft 23 kts 214°
2026-05-05 19:00 51.45633 5.37866 83 ft 25 kts 215°
2026-05-05 19:00 51.45488 5.37704 83 ft 27 kts 215°
2026-05-05 19:00 51.45332 5.37528 83 ft 28 kts 215°
2026-05-05 19:01 51.45166 5.37341 84 ft 30 kts 215°
2026-05-05 19:01 51.45001 5.37157 80 ft 24 kts 215°
2026-05-05 19:01 51.44858 5.36998 84 ft 26 kts 214°
2026-05-05 19:01 51.44700 5.36821 81 ft 28 kts 215°
2026-05-05 19:02 51.44548 5.36650 82 ft 26 kts 215°
2026-05-05 19:02 51.44391 5.36474 85 ft 28 kts 215°
2026-05-05 19:02 51.44226 5.36289 81 ft 28 kts 215°
2026-05-05 19:02 51.44076 5.36121 81 ft 24 kts 216°
2026-05-05 19:03 51.44008 5.36067 82 ft 8 kts 171°
2026-05-05 19:03 51.43965 5.36129 82 ft 10 kts 125°
2026-05-05 19:03 51.43945 5.36243 76 ft 12 kts 68°
2026-05-05 19:03 51.43965 5.36278 84 ft 1 kts 35°
2026-05-05 19:04 51.43972 5.36286 82 ft 2 kts 35°
2026-05-05 19:04 51.44043 5.36364 85 ft 43 kts 35°
2026-05-05 19:04 51.44498 5.36874 78 ft 116 kts 35°
2026-05-05 19:04 51.45314 5.37777 221 ft 158 kts 33°
2026-05-05 19:05 51.46264 5.38817 853 ft 170 kts 34°
2026-05-05 19:05 51.47201 5.39871 1942 ft 160 kts 35°
2026-05-05 19:05 51.48152 5.40947 2395 ft 181 kts 35°
2026-05-05 19:05 51.49270 5.42210 2765 ft 206 kts 35°
2026-05-05 19:06 51.50454 5.43582 3529 ft 210 kts 40°
2026-05-05 19:06 51.51381 5.45414 4317 ft 218 kts 63°
2026-05-05 19:06 51.51717 5.47826 5047 ft 227 kts 90°
2026-05-05 19:06 51.51268 5.50476 5414 ft 235 kts 110°
2026-05-05 19:07 51.50682 5.52736 5518 ft 235 kts 110°
2026-05-05 19:07 51.50090 5.55068 5677 ft 235 kts 109°
2026-05-05 19:07 51.49541 5.57280 5776 ft 237 kts 107°
2026-05-05 19:07 51.49136 5.59868 5794 ft 242 kts 100°
2026-05-05 19:08 51.48826 5.62105 5767 ft 246 kts 101°
2026-05-05 19:08 51.48454 5.64879 5819 ft 258 kts 95°
2026-05-05 19:08 51.48561 5.67722 5884 ft 260 kts 81°
2026-05-05 19:08 51.48798 5.70617 5875 ft 263 kts 81°
2026-05-05 19:09 51.49031 5.73546 5884 ft 264 kts 82°
2026-05-05 19:09 51.49263 5.76457 5886 ft 263 kts 82°
2026-05-05 19:09 51.49492 5.79368 5887 ft 264 kts 82°
2026-05-05 19:09 51.49723 5.82280 5864 ft 262 kts 82°
2026-05-05 19:10 51.49952 5.85176 5871 ft 263 kts 82°
2026-05-05 19:10 51.50182 5.88097 5890 ft 264 kts 82°
2026-05-05 19:10 51.50412 5.91024 5861 ft 263 kts 82°
2026-05-05 19:10 51.50640 5.93936 5853 ft 263 kts 82°
2026-05-05 19:11 51.50868 5.96863 5851 ft 264 kts 82°
2026-05-05 19:11 51.50797 5.99802 5938 ft 267 kts 105°
2026-05-05 19:11 51.50031 6.02501 6756 ft 268 kts 116°
2026-05-05 19:11 51.49507 6.04302 7265 ft 271 kts 112°
2026-05-05 19:12 51.48728 6.07182 8013 ft 278 kts 112°
2026-05-05 19:12 51.47948 6.10013 8836 ft 282 kts 114°
2026-05-05 19:12 51.47149 6.12871 9598 ft 287 kts 114°
2026-05-05 19:12 51.46303 6.15871 10247 ft 297 kts 114°
2026-05-05 19:13 51.45430 6.18964 10568 ft 316 kts 114°
2026-05-05 19:13 51.44496 6.22272 10858 ft 336 kts 114°
2026-05-05 19:13 51.43511 6.25749 11259 ft 350 kts 115°
2026-05-05 19:13 51.42481 6.29372 11796 ft 359 kts 116°
2026-05-05 19:14 51.41441 6.33018 12573 ft 361 kts 116°
2026-05-05 19:14 51.40384 6.36709 13363 ft 364 kts 116°
2026-05-05 19:14 51.39328 6.40389 14075 ft 368 kts 116°
2026-05-05 19:14 51.38225 6.44228 14761 ft 372 kts 116°
2026-05-05 19:15 51.37156 6.47939 15465 ft 375 kts 116°
2026-05-05 19:15 51.36058 6.51750 16168 ft 379 kts 116°
2026-05-05 19:15 51.34951 6.55585 16849 ft 383 kts 116°
2026-05-05 19:15 51.33824 6.59481 17525 ft 387 kts 116°
2026-05-05 19:16 51.32672 6.63457 18176 ft 391 kts 116°
2026-05-05 19:16 51.31520 6.67426 18759 ft 395 kts 116°
2026-05-05 19:16 51.30359 6.71423 19363 ft 397 kts 116°
2026-05-05 19:16 51.29197 6.75412 20002 ft 398 kts 116°
2026-05-05 19:17 51.28006 6.79497 20572 ft 401 kts 116°
2026-05-05 19:17 51.26837 6.83497 21137 ft 404 kts 116°
2026-05-05 19:17 51.25611 6.87684 21706 ft 407 kts 116°
2026-05-05 19:17 51.24238 6.92368 22335 ft 410 kts 116°
2026-05-05 19:18 51.23142 6.96097 22832 ft 413 kts 117°
2026-05-05 19:18 51.21841 7.00519 23410 ft 416 kts 117°
2026-05-05 19:18 51.20605 7.04712 23857 ft 419 kts 117°
2026-05-05 19:18 51.19362 7.08923 24311 ft 421 kts 117°
2026-05-05 19:19 51.18111 7.13151 24764 ft 423 kts 117°
2026-05-05 19:19 51.16849 7.17409 25227 ft 424 kts 117°
2026-05-05 19:19 51.15569 7.21722 25713 ft 426 kts 117°
2026-05-05 19:19 51.14301 7.25986 26115 ft 428 kts 117°
2026-05-05 19:20 51.13035 7.30235 26528 ft 430 kts 117°
2026-05-05 19:20 51.11740 7.34571 26943 ft 433 kts 117°
2026-05-05 19:20 51.10444 7.38906 27339 ft 435 kts 117°
2026-05-05 19:20 51.09139 7.43269 27727 ft 437 kts 117°
2026-05-05 19:21 51.07829 7.47629 28136 ft 439 kts 117°
2026-05-05 19:21 51.06484 7.52101 28539 ft 442 kts 117°
2026-05-05 19:21 51.05172 7.56459 28911 ft 444 kts 117°
2026-05-05 19:21 51.03833 7.60894 29294 ft 445 kts 117°
2026-05-05 19:22 51.02500 7.65304 29743 ft 446 kts 117°
2026-05-05 19:22 51.01139 7.69797 30229 ft 444 kts 117°
2026-05-05 19:22 50.99801 7.74202 30663 ft 443 kts 117°
2026-05-05 19:22 50.98481 7.78545 30814 ft 442 kts 117°
2026-05-05 19:23 50.95818 7.87285 30808 ft 439 kts 117°
2026-05-05 19:23 50.93113 7.96003 31474 ft 437 kts 121°
2026-05-05 19:24 50.92066 7.98713 31767 ft 434 kts 127°
2026-05-05 19:24 50.90235 8.02458 32224 ft 431 kts 130°
2026-05-05 19:24 50.88137 8.05809 32681 ft 427 kts 143°
2026-05-05 19:24 50.85720 8.08482 33174 ft 423 kts 147°
2026-05-05 19:25 50.83442 8.11422 33592 ft 423 kts 136°
2026-05-05 19:25 50.81334 8.14659 34009 ft 421 kts 138°
2026-05-05 19:25 50.79206 8.17834 34272 ft 422 kts 138°
2026-05-05 19:25 50.77061 8.21018 34520 ft 424 kts 138°
2026-05-05 19:26 50.74905 8.24211 34778 ft 425 kts 139°
2026-05-05 19:26 50.72753 8.27396 35000 ft 427 kts 139°
2026-05-05 19:26 50.70581 8.30603 35253 ft 428 kts 139°
2026-05-05 19:26 50.68403 8.33816 35494 ft 429 kts 139°
2026-05-05 19:27 50.66217 8.37036 35734 ft 431 kts 139°
2026-05-05 19:27 50.64025 8.40262 35970 ft 432 kts 139°
2026-05-05 19:27 50.61825 8.43492 36188 ft 433 kts 139°
2026-05-05 19:27 50.59599 8.46758 36434 ft 434 kts 140°
2026-05-05 19:28 50.57406 8.49971 36656 ft 435 kts 140°
2026-05-05 19:28 50.55197 8.53205 36803 ft 438 kts 140°
2026-05-05 19:28 50.50728 8.59730 36811 ft 436 kts 140°
2026-05-05 19:29 50.46245 8.66258 36808 ft 436 kts 140°
2026-05-05 19:29 50.41817 8.72689 36806 ft 436 kts 140°
2026-05-05 19:30 50.37297 8.79237 36808 ft 436 kts 140°
2026-05-05 19:30 50.32730 8.85835 36812 ft 436 kts 140°
2026-05-05 19:31 50.28311 8.92200 36812 ft 437 kts 140°
2026-05-05 19:31 50.23805 8.98674 36812 ft 438 kts 140°
2026-05-05 19:32 50.19313 9.05111 36810 ft 438 kts 140°
2026-05-05 19:32 50.14800 9.11561 36808 ft 438 kts 140°
2026-05-05 19:33 50.10299 9.17975 36802 ft 438 kts 140°
2026-05-05 19:33 50.05803 9.24367 36818 ft 437 kts 140°
2026-05-05 19:34 50.01293 9.30760 36821 ft 439 kts 140°
2026-05-05 19:35 49.94531 9.40315 36823 ft 439 kts 140°
2026-05-05 19:35 49.90005 9.46690 36820 ft 439 kts 140°
2026-05-05 19:36 49.85478 9.53048 36823 ft 439 kts 140°
2026-05-05 19:36 49.80950 9.59391 36817 ft 439 kts 140°
2026-05-05 19:37 49.76389 9.65765 36821 ft 440 kts 140°
2026-05-05 19:37 49.71813 9.72142 36824 ft 440 kts 140°
2026-05-05 19:38 49.67256 9.78475 36826 ft 440 kts 140°
2026-05-05 19:38 49.62715 9.84770 36829 ft 440 kts 140°
2026-05-05 19:39 49.58133 9.91105 36829 ft 440 kts 141°
2026-05-05 19:39 49.53584 9.97378 36825 ft 440 kts 141°
2026-05-05 19:40 49.49002 10.03681 36827 ft 441 kts 141°
2026-05-05 19:40 49.44424 10.09960 36828 ft 441 kts 141°
2026-05-05 19:41 49.39839 10.16233 36835 ft 441 kts 141°
2026-05-05 19:41 49.35257 10.22490 36837 ft 441 kts 141°
2026-05-05 19:42 49.30630 10.28792 36819 ft 441 kts 141°
2026-05-05 19:42 49.26043 10.35023 36854 ft 442 kts 141°
2026-05-05 19:43 49.21548 10.41473 36864 ft 444 kts 139°
2026-05-05 19:43 49.17074 10.48081 36859 ft 444 kts 139°
2026-05-05 19:44 49.12647 10.54611 36863 ft 444 kts 139°
2026-05-05 19:44 49.08936 10.60113 36865 ft 444 kts 139°
2026-05-05 19:45 49.04476 10.66703 36853 ft 444 kts 140°
2026-05-05 19:45 49.00023 10.73255 36859 ft 445 kts 140°
2026-05-05 19:46 48.95580 10.79778 36861 ft 445 kts 140°
2026-05-05 19:46 48.91115 10.86321 36841 ft 445 kts 140°
2026-05-05 19:47 48.86671 10.92826 36848 ft 445 kts 140°
2026-05-05 19:47 48.82203 10.99347 36808 ft 445 kts 140°
2026-05-05 19:48 48.77729 11.05860 36822 ft 444 kts 140°
2026-05-05 19:48 48.73251 11.12343 36834 ft 447 kts 141°
2026-05-05 19:49 48.68764 11.18824 36829 ft 447 kts 141°
2026-05-05 19:49 48.64299 11.25372 36826 ft 450 kts 134°
2026-05-05 19:50 48.60507 11.32947 36820 ft 453 kts 131°
2026-05-05 19:50 48.56719 11.40546 36826 ft 452 kts 131°
2026-05-05 19:51 48.52947 11.48103 36829 ft 452 kts 131°
2026-05-05 19:51 48.49155 11.55678 36823 ft 453 kts 132°
2026-05-05 19:52 48.45172 11.63048 36836 ft 452 kts 137°
2026-05-05 19:52 48.40992 11.70142 36815 ft 452 kts 136°
2026-05-05 19:53 48.36815 11.77301 36833 ft 452 kts 136°
2026-05-05 19:53 48.32604 11.84511 36833 ft 452 kts 136°
2026-05-05 19:54 48.28429 11.91639 36827 ft 452 kts 136°
2026-05-05 19:54 48.24278 11.98711 36827 ft 452 kts 136°
2026-05-05 19:55 48.20096 12.05814 36802 ft 452 kts 136°
2026-05-05 19:55 48.15897 12.12812 36829 ft 451 kts 141°
2026-05-05 19:56 48.11300 12.19194 36830 ft 450 kts 141°
2026-05-05 19:56 48.06760 12.25633 36838 ft 450 kts 141°
2026-05-05 19:57 48.02198 12.32116 36841 ft 450 kts 141°
2026-05-05 19:57 47.97628 12.38583 36831 ft 450 kts 142°
2026-05-05 19:58 47.93033 12.44993 36836 ft 450 kts 142°
2026-05-05 19:58 47.88436 12.51400 36834 ft 450 kts 142°
2026-05-05 19:59 47.83902 12.57703 36836 ft 450 kts 142°
2026-05-05 19:59 47.79423 12.64301 36835 ft 451 kts 140°
2026-05-05 20:00 47.74986 12.70896 36823 ft 451 kts 140°
2026-05-05 20:00 47.71259 12.76412 36833 ft 451 kts 140°
2026-05-05 20:01 47.67127 12.83507 36841 ft 458 kts 126°
2026-05-05 20:01 47.63610 12.91416 36806 ft 459 kts 128°
2026-05-05 20:02 47.60080 12.99305 36825 ft 460 kts 128°
2026-05-05 20:02 47.56495 13.07306 36790 ft 460 kts 128°
2026-05-05 20:03 47.52969 13.15155 36853 ft 462 kts 128°
2026-05-05 20:03 47.49414 13.23044 36838 ft 461 kts 128°
2026-05-05 20:04 47.45855 13.30919 36846 ft 460 kts 128°
2026-05-05 20:04 47.42274 13.38820 36859 ft 461 kts 128°
2026-05-05 20:05 47.38726 13.46629 36845 ft 462 kts 128°
2026-05-05 20:05 47.35133 13.54511 36846 ft 463 kts 128°
2026-05-05 20:06 47.31535 13.62384 36884 ft 463 kts 128°
2026-05-05 20:06 47.27935 13.70237 36868 ft 462 kts 128°
2026-05-05 20:07 47.24344 13.78047 36861 ft 462 kts 127°
2026-05-05 20:07 47.20731 13.85883 36904 ft 462 kts 127°
2026-05-05 20:08 47.17123 13.93689 36894 ft 462 kts 127°
2026-05-05 20:08 47.13501 14.01503 36889 ft 462 kts 127°
2026-05-05 20:09 47.09844 14.09366 36900 ft 463 kts 128°
2026-05-05 20:09 47.06211 14.17158 36925 ft 463 kts 127°
2026-05-05 20:10 47.02559 14.24967 36915 ft 462 kts 127°
2026-05-05 20:10 46.98924 14.32721 36915 ft 462 kts 127°
2026-05-05 20:11 46.95285 14.40458 36920 ft 463 kts 127°
2026-05-05 20:11 46.91623 14.48226 36911 ft 463 kts 127°
2026-05-05 20:12 46.87922 14.56051 36930 ft 465 kts 127°
2026-05-05 20:12 46.84247 14.63802 36927 ft 466 kts 127°
2026-05-05 20:13 46.80545 14.71588 36924 ft 467 kts 127°
2026-05-05 20:13 46.76851 14.79335 36899 ft 466 kts 127°
2026-05-05 20:14 46.73142 14.87091 36931 ft 466 kts 127°
2026-05-05 20:14 46.69440 14.94812 36927 ft 466 kts 127°
2026-05-05 20:15 46.65716 15.02556 36920 ft 466 kts 127°
2026-05-05 20:15 46.61990 15.10283 36934 ft 466 kts 128°
2026-05-05 20:16 46.58261 15.17994 36925 ft 466 kts 128°
2026-05-05 20:16 46.54518 15.25715 36918 ft 467 kts 128°
2026-05-05 20:17 46.50745 15.33475 36916 ft 467 kts 128°
2026-05-05 20:17 46.46995 15.41166 36915 ft 467 kts 128°
2026-05-05 20:18 46.43244 15.48839 36906 ft 468 kts 128°
2026-05-05 20:18 46.39478 15.56523 36931 ft 468 kts 128°
2026-05-05 20:19 46.35728 15.64157 36930 ft 468 kts 128°
2026-05-05 20:19 46.31898 15.71934 36932 ft 468 kts 128°
2026-05-05 20:20 46.28128 15.79569 36935 ft 468 kts 128°
2026-05-05 20:20 46.24953 15.85862 36942 ft 469 kts 129°
2026-05-05 20:21 46.21082 15.93497 36944 ft 469 kts 129°
2026-05-05 20:21 46.17223 16.01097 36945 ft 469 kts 129°
2026-05-05 20:22 46.13332 16.08740 36952 ft 469 kts 129°
2026-05-05 20:22 46.09474 16.16298 36950 ft 468 kts 129°
2026-05-05 20:23 46.05620 16.23828 36957 ft 468 kts 129°
2026-05-05 20:23 46.01724 16.31421 36961 ft 468 kts 129°
2026-05-05 20:24 45.97856 16.38937 36955 ft 469 kts 129°
2026-05-05 20:24 45.93963 16.46482 36966 ft 470 kts 129°
2026-05-05 20:25 45.90053 16.54040 36967 ft 470 kts 129°
2026-05-05 20:25 45.86147 16.61571 36969 ft 470 kts 129°
2026-05-05 20:26 45.82262 16.69040 36969 ft 470 kts 129°
2026-05-05 20:26 45.78327 16.76587 36963 ft 471 kts 129°
2026-05-05 20:27 45.74370 16.84153 36963 ft 472 kts 129°
2026-05-05 20:27 45.70463 16.91606 36967 ft 472 kts 129°
2026-05-05 20:28 45.66522 16.99104 36979 ft 473 kts 129°
2026-05-05 20:28 45.62567 17.06608 36961 ft 473 kts 129°
2026-05-05 20:29 45.58552 17.14204 36971 ft 473 kts 129°
2026-05-05 20:29 45.54583 17.21695 36983 ft 473 kts 129°
2026-05-05 20:30 45.50623 17.29148 36973 ft 473 kts 129°
2026-05-05 20:30 45.46642 17.36622 36965 ft 473 kts 129°
2026-05-05 20:31 45.42588 17.44211 36984 ft 475 kts 129°
2026-05-05 20:31 45.38608 17.51644 36977 ft 474 kts 129°
2026-05-05 20:32 45.34608 17.59094 36983 ft 474 kts 129°
2026-05-05 20:32 45.30597 17.66544 36986 ft 475 kts 129°
2026-05-05 20:33 45.26532 17.74076 36980 ft 477 kts 129°
2026-05-05 20:33 45.22500 17.81525 36984 ft 477 kts 129°
2026-05-05 20:34 45.18444 17.89000 36979 ft 477 kts 129°
2026-05-05 20:34 45.14364 17.96500 36978 ft 477 kts 129°
2026-05-05 20:35 45.10976 18.02713 36980 ft 481 kts 129°
2026-05-05 20:35 45.06299 18.11267 36979 ft 481 kts 129°
2026-05-05 20:36 45.02069 18.18980 36979 ft 481 kts 130°
2026-05-05 20:36 44.98641 18.25217 36971 ft 481 kts 130°
2026-05-05 20:37 44.94502 18.32729 36979 ft 484 kts 129°
2026-05-05 20:37 44.90372 18.40208 36981 ft 483 kts 129°
2026-05-05 20:38 44.86207 18.47734 36976 ft 483 kts 129°
2026-05-05 20:38 44.82068 18.55192 36977 ft 483 kts 129°
2026-05-05 20:39 44.77894 18.62635 36989 ft 485 kts 131°
2026-05-05 20:39 44.73630 18.69969 36999 ft 485 kts 130°
2026-05-05 20:40 44.69799 18.76578 36985 ft 485 kts 130°
2026-05-05 20:40 44.64969 18.84893 36983 ft 485 kts 131°
2026-05-05 20:41 44.60699 18.92223 36981 ft 485 kts 131°
2026-05-05 20:41 44.56446 18.99507 36978 ft 485 kts 131°
2026-05-05 20:42 44.52107 19.06917 36988 ft 484 kts 131°
2026-05-05 20:42 44.47836 19.14196 36983 ft 485 kts 131°
2026-05-05 20:43 44.43548 19.21482 36990 ft 487 kts 131°
2026-05-05 20:43 44.39233 19.28796 36985 ft 486 kts 131°
2026-05-05 20:44 44.34919 19.36090 36998 ft 487 kts 131°
2026-05-05 20:44 44.30601 19.43371 37002 ft 487 kts 130°
2026-05-05 20:45 44.24120 19.54266 37008 ft 488 kts 131°
2026-05-05 20:45 44.19784 19.61531 37009 ft 487 kts 131°
2026-05-05 20:46 44.15438 19.68796 37006 ft 488 kts 131°
2026-05-05 20:46 44.11093 19.76039 37007 ft 488 kts 131°
2026-05-05 20:47 44.06726 19.83302 37009 ft 488 kts 131°
2026-05-05 20:47 44.02362 19.90542 37009 ft 488 kts 131°
2026-05-05 20:48 43.97989 19.97778 37009 ft 489 kts 131°
2026-05-05 20:48 43.93618 20.04992 37015 ft 490 kts 131°
2026-05-05 20:49 43.89224 20.12226 37006 ft 490 kts 131°
2026-05-05 20:49 43.84857 20.19398 37015 ft 490 kts 131°
2026-05-05 20:50 43.81169 20.25442 37023 ft 489 kts 131°
2026-05-05 20:50 43.76044 20.33818 37019 ft 489 kts 131°
2026-05-05 20:51 43.71641 20.40994 37006 ft 489 kts 131°
2026-05-05 20:51 43.67973 20.46959 37024 ft 492 kts 131°
2026-05-05 20:52 43.63549 20.54139 37023 ft 490 kts 131°
2026-05-05 20:52 43.59102 20.61337 37024 ft 489 kts 131°
2026-05-05 20:53 43.54675 20.68483 37029 ft 489 kts 131°
2026-05-05 20:53 43.50283 20.75562 37026 ft 489 kts 131°
2026-05-05 20:54 43.45869 20.82659 37009 ft 487 kts 131°
2026-05-05 20:54 43.41252 20.89556 36999 ft 488 kts 144°
2026-05-05 20:55 43.35675 20.94895 36988 ft 489 kts 146°
2026-05-05 20:55 43.30079 21.00227 37041 ft 489 kts 147°
2026-05-05 20:56 43.24510 21.05477 37032 ft 486 kts 147°
2026-05-05 20:56 43.18925 21.10726 37016 ft 487 kts 147°
2026-05-05 20:57 43.13268 21.16034 37029 ft 491 kts 147°
2026-05-05 20:57 43.07637 21.21304 37043 ft 491 kts 147°
2026-05-05 20:58 43.02022 21.26547 37035 ft 488 kts 147°
2026-05-05 20:58 42.96376 21.31807 37025 ft 488 kts 147°
2026-05-05 20:59 42.90740 21.37046 37031 ft 492 kts 147°
2026-05-05 20:59 42.85094 21.42283 37023 ft 491 kts 147°
2026-05-05 21:00 42.79443 21.47512 37036 ft 492 kts 147°
2026-05-05 21:00 42.73782 21.52739 37035 ft 491 kts 147°
2026-05-05 21:01 42.68091 21.57982 37026 ft 491 kts 147°
2026-05-05 21:01 42.62398 21.63214 37023 ft 491 kts 147°
2026-05-05 21:02 42.56654 21.68482 37027 ft 491 kts 147°
2026-05-05 21:02 42.50994 21.73662 37028 ft 491 kts 147°
2026-05-05 21:03 42.45310 21.78851 37031 ft 494 kts 147°
2026-05-05 21:03 42.39641 21.84015 37021 ft 492 kts 147°
2026-05-05 21:04 42.33954 21.89184 37025 ft 492 kts 147°
2026-05-05 21:04 42.28266 21.94343 37017 ft 492 kts 147°
2026-05-05 21:05 42.22588 21.99481 37022 ft 493 kts 147°
2026-05-05 21:05 42.16885 22.04631 37015 ft 493 kts 147°
2026-05-05 21:06 42.11175 22.09775 37022 ft 493 kts 147°
2026-05-05 21:06 42.05466 22.14907 37026 ft 493 kts 147°
2026-05-05 21:07 41.99777 22.20010 37020 ft 493 kts 147°
2026-05-05 21:07 41.94068 22.25120 37024 ft 494 kts 147°
2026-05-05 21:08 41.88351 22.30226 37020 ft 493 kts 147°
2026-05-05 21:08 41.82644 22.35312 37030 ft 494 kts 147°
2026-05-05 21:09 41.76925 22.40397 37014 ft 494 kts 147°
2026-05-05 21:09 41.71130 22.45538 37026 ft 496 kts 147°
2026-05-05 21:10 41.65391 22.50619 37025 ft 495 kts 148°
2026-05-05 21:10 41.59696 22.55650 37031 ft 495 kts 148°
2026-05-05 21:11 41.53944 22.60721 37023 ft 496 kts 148°
2026-05-05 21:11 41.48122 22.65844 37036 ft 498 kts 148°
2026-05-05 21:12 41.42336 22.70924 37031 ft 498 kts 148°
2026-05-05 21:12 41.36559 22.75986 37045 ft 498 kts 148°
2026-05-05 21:13 41.30762 22.81037 37037 ft 498 kts 148°
2026-05-05 21:13 41.24965 22.86076 37043 ft 499 kts 148°
2026-05-05 21:14 41.20101 22.90297 37031 ft 499 kts 148°
2026-05-05 21:14 41.14287 22.95333 37035 ft 499 kts 148°
2026-05-05 21:15 41.09014 23.01234 37031 ft 497 kts 125°
2026-05-05 21:15 41.05043 23.08763 37004 ft 499 kts 123°
2026-05-05 21:16 41.01137 23.16359 37041 ft 500 kts 122°
2026-05-05 21:16 40.97250 23.23978 37039 ft 499 kts 122°
2026-05-05 21:17 40.93361 23.31591 37047 ft 499 kts 122°
2026-05-05 21:17 40.89443 23.39241 37035 ft 499 kts 123°
2026-05-05 21:18 40.85556 23.46813 37055 ft 498 kts 122°
2026-05-05 21:18 40.81661 23.54382 37049 ft 497 kts 122°
2026-05-05 21:19 40.77777 23.61912 37044 ft 497 kts 122°
2026-05-05 21:19 40.73888 23.69432 37052 ft 497 kts 122°
2026-05-05 21:20 40.69983 23.76964 37052 ft 497 kts 122°
2026-05-05 21:20 40.66100 23.84437 37051 ft 497 kts 122°
2026-05-05 21:21 40.62186 23.91951 37050 ft 497 kts 122°
2026-05-05 21:21 40.58277 23.99434 37051 ft 497 kts 123°
2026-05-05 21:22 40.54341 24.06950 37061 ft 497 kts 123°
2026-05-05 21:22 40.50419 24.14420 37050 ft 496 kts 123°
2026-05-05 21:23 40.46502 24.21864 37053 ft 496 kts 123°
2026-05-05 21:23 40.42571 24.29316 37055 ft 496 kts 123°
2026-05-05 21:24 40.38638 24.36753 37053 ft 496 kts 123°
2026-05-05 21:24 40.34699 24.44184 37047 ft 496 kts 123°
2026-05-05 21:25 40.30757 24.51605 37054 ft 498 kts 123°
2026-05-05 21:25 40.26791 24.59052 37053 ft 498 kts 123°
2026-05-05 21:26 40.22824 24.66482 37053 ft 498 kts 123°
2026-05-05 21:26 40.18854 24.73903 37053 ft 498 kts 123°
2026-05-05 21:27 40.14888 24.81296 37058 ft 498 kts 123°
2026-05-05 21:27 40.10907 24.88702 37055 ft 498 kts 123°
2026-05-05 21:28 40.06921 24.96099 37049 ft 498 kts 123°
2026-05-05 21:28 40.02939 25.03471 37069 ft 498 kts 123°
2026-05-05 21:29 39.98904 25.10924 37053 ft 497 kts 123°
2026-05-05 21:29 39.94924 25.18261 37045 ft 497 kts 123°
2026-05-05 21:30 39.90579 25.25289 37037 ft 498 kts 139°
2026-05-05 21:30 39.85345 25.31216 37027 ft 500 kts 138°
2026-05-05 21:31 39.80118 25.37176 37052 ft 499 kts 138°
2026-05-05 21:31 39.74891 25.43100 37070 ft 499 kts 138°
2026-05-05 21:32 39.69657 25.49019 37053 ft 499 kts 138°
2026-05-05 21:32 39.64433 25.54914 37061 ft 499 kts 138°
2026-05-05 21:33 39.59184 25.60824 37066 ft 498 kts 138°
2026-05-05 21:33 39.53943 25.66715 37068 ft 498 kts 138°
2026-05-05 21:34 39.48715 25.72577 37060 ft 497 kts 138°
2026-05-05 21:34 39.43479 25.78437 37056 ft 498 kts 138°
2026-05-05 21:35 39.38237 25.84290 37063 ft 498 kts 139°
2026-05-05 21:35 39.32989 25.90141 37070 ft 498 kts 139°
2026-05-05 21:36 39.27688 25.95950 37082 ft 498 kts 140°
2026-05-05 21:36 39.22351 26.01684 35890 ft 505 kts 139°
2026-05-05 21:37 39.19642 26.04595 35189 ft 504 kts 139°
2026-05-05 21:37 39.16945 26.07492 34357 ft 506 kts 139°
2026-05-05 21:37 39.14212 26.10422 33187 ft 514 kts 139°
2026-05-05 21:37 39.11526 26.13299 32487 ft 510 kts 139°
2026-05-05 21:38 39.08749 26.16273 31414 ft 516 kts 139°
2026-05-05 21:38 39.05969 26.19246 30299 ft 523 kts 139°
2026-05-05 21:38 39.03170 26.22236 29201 ft 525 kts 139°
2026-05-05 21:38 39.00360 26.25234 28202 ft 524 kts 139°
2026-05-05 21:39 38.97554 26.28225 27087 ft 526 kts 139°
2026-05-05 21:39 38.94735 26.31227 26164 ft 523 kts 139°
2026-05-05 21:39 38.91964 26.34174 25378 ft 518 kts 139°
2026-05-05 21:39 38.89185 26.37128 24552 ft 514 kts 139°
2026-05-05 21:40 38.86444 26.40037 23835 ft 508 kts 139°
2026-05-05 21:40 38.83744 26.42932 22987 ft 504 kts 137°
2026-05-05 21:40 38.81123 26.45879 22257 ft 496 kts 137°
2026-05-05 21:40 38.78541 26.48771 21558 ft 489 kts 137°
2026-05-05 21:41 38.75994 26.51615 20903 ft 482 kts 137°
2026-05-05 21:41 38.73492 26.54403 20275 ft 475 kts 137°
2026-05-05 21:41 38.71012 26.57164 19307 ft 476 kts 137°
2026-05-05 21:41 38.68522 26.59933 18507 ft 466 kts 137°
2026-05-05 21:42 38.66137 26.62585 17346 ft 455 kts 137°
2026-05-05 21:42 38.63760 26.65224 16132 ft 447 kts 137°
2026-05-05 21:42 38.61420 26.67834 14963 ft 439 kts 137°
2026-05-05 21:42 38.59137 26.70378 13910 ft 435 kts 137°
2026-05-05 21:43 38.57621 26.72066 13453 ft 433 kts 137°
2026-05-05 21:43 38.55372 26.74568 12855 ft 428 kts 137°
2026-05-05 21:43 38.53141 26.77048 12281 ft 422 kts 137°
2026-05-05 21:43 38.50945 26.79486 11745 ft 416 kts 137°
2026-05-05 21:44 38.48779 26.81889 11306 ft 408 kts 136°
2026-05-05 21:44 38.46651 26.84249 10955 ft 399 kts 136°
2026-05-05 21:44 38.44555 26.86570 10649 ft 389 kts 136°
2026-05-05 21:44 38.42535 26.88807 10390 ft 380 kts 136°
2026-05-05 21:45 38.40566 26.90984 10146 ft 370 kts 136°
2026-05-05 21:45 38.38639 26.93115 9740 ft 366 kts 136°
2026-05-05 21:45 38.36720 26.95233 9319 ft 362 kts 136°
2026-05-05 21:45 38.34837 26.97312 9030 ft 357 kts 136°
2026-05-05 21:46 38.32952 26.99391 8983 ft 359 kts 136°
2026-05-05 21:46 38.30923 27.01314 8975 ft 362 kts 150°
2026-05-05 21:46 38.28637 27.02719 9046 ft 364 kts 152°
2026-05-05 21:46 38.26364 27.04130 9000 ft 364 kts 152°
2026-05-05 21:47 38.24088 27.05555 9012 ft 364 kts 152°
2026-05-05 21:47 38.21811 27.06970 8974 ft 364 kts 154°
2026-05-05 21:47 38.19379 27.07875 8568 ft 364 kts 167°
2026-05-05 21:47 38.16920 27.08570 8033 ft 357 kts 166°
2026-05-05 21:48 38.14551 27.09262 7564 ft 342 kts 166°
2026-05-05 21:48 38.12285 27.09935 7180 ft 328 kts 166°
2026-05-05 21:48 38.10130 27.10580 6769 ft 317 kts 166°
2026-05-05 21:48 38.08019 27.11214 6388 ft 305 kts 166°
2026-05-05 21:49 38.06126 27.12247 5972 ft 292 kts 139°
2026-05-05 21:49 38.04983 27.14290 5574 ft 276 kts 105°
2026-05-05 21:49 38.04845 27.16605 5270 ft 256 kts 78°
2026-05-05 21:49 38.05208 27.18748 5039 ft 242 kts 74°
2026-05-05 21:50 38.05863 27.20614 4698 ft 226 kts 45°
2026-05-05 21:50 38.07128 27.21643 4427 ft 211 kts 15°
2026-05-05 21:50 38.08540 27.21704 4186 ft 202 kts 350°
2026-05-05 21:50 38.09910 27.21300 3952 ft 203 kts 347°
2026-05-05 21:51 38.11289 27.20874 3707 ft 202 kts 347°
2026-05-05 21:51 38.12674 27.20454 3445 ft 202 kts 347°
2026-05-05 21:51 38.14039 27.20044 3200 ft 200 kts 348°
2026-05-05 21:51 38.15351 27.19650 2930 ft 186 kts 348°
2026-05-05 21:52 38.17813 27.18911 2454 ft 180 kts 348°
2026-05-05 21:52 38.19008 27.18551 2213 ft 170 kts 348°
2026-05-05 21:52 38.20129 27.18215 1984 ft 162 kts 348°
2026-05-05 21:53 38.21218 27.17889 1784 ft 161 kts 348°
2026-05-05 21:53 38.22285 27.17570 1545 ft 151 kts 348°
2026-05-05 21:53 38.23283 27.17271 1361 ft 144 kts 347°
2026-05-05 21:53 38.24246 27.16982 1148 ft 141 kts 347°
2026-05-05 21:54 38.25209 27.16692 980 ft 143 kts 346°
2026-05-05 21:54 38.26183 27.16403 786 ft 144 kts 347°
2026-05-05 21:54 38.27164 27.16109 587 ft 146 kts 346°
2026-05-05 21:54 38.28148 27.15809 419 ft 141 kts 347°
2026-05-05 21:55 38.28889 27.15586 414 ft 76 kts 346°
2026-05-05 21:55 38.29289 27.15465 416 ft 41 kts 347°
2026-05-05 21:55 38.29384 27.15392 417 ft 13 kts 269°
2026-05-05 21:55 38.29362 27.15262 412 ft 17 kts 258°
2026-05-05 21:56 38.29354 27.15128 413 ft 11 kts 313°
2026-05-05 21:56 38.29411 27.15095 421 ft 8 kts 299°
2026-05-05 21:56 38.29402 27.15036 418 ft 7 kts 258°
2026-05-05 21:56 38.29400 27.15021 419 ft 0 kts 258°
2026-05-05 21:57 38.29399 27.15017 419 ft 0 kts 256°